TimeWIB,TemperatureF,Dew PointF,Humidity,Sea Level PressureIn,VisibilityMPH,Wind Direction,Wind SpeedMPH,Gust SpeedMPH,PrecipitationIn,Events,Conditions,WindDirDegrees,DateUTC
12:00 AM,77.0,73.4,89,29.86,5.0,Calm,Calm,-,N/A,,Unknown,0,2014-04-14 17:00:00
12:30 AM,77.0,73.4,89,29.83,5.0,Calm,Calm,-,N/A,,Unknown,0,2014-04-14 17:30:00
1:00 AM,77,72,82,29.84,5,Calm,Calm,,,,Scattered Clouds,,2014-04-14 18:00:00
1:00 AM,77.0,73.4,89,29.83,5.0,Calm,Calm,-,N/A,,Unknown,0,2014-04-14 18:00:00
4:00 AM,76,75,94,29.80,5,Calm,Calm,,,,Partly Cloudy,,2014-04-14 21:00:00
4:00 AM,77.0,75.2,94,29.77,5.0,Calm,Calm,-,N/A,,Unknown,0,2014-04-14 21:00:00
5:00 AM,77.0,73.4,89,29.80,5.0,Calm,Calm,-,N/A,,Partly Cloudy,0,2014-04-14 22:00:00
5:30 AM,77.0,73.4,89,29.80,5.0,Calm,Calm,-,N/A,,Partly Cloudy,0,2014-04-14 22:30:00
6:00 AM,75.2,75.2,100,29.80,3.1,Calm,Calm,-,N/A,,Haze,0,2014-04-14 23:00:00
6:30 AM,75.2,75.2,100,29.83,3.7,Calm,Calm,-,N/A,,Unknown,0,2014-04-14 23:30:00
7:00 AM,76,74,92,29.84,4,Calm,Calm,,,,Scattered Clouds,,2014-04-15 00:00:00
7:00 AM,75.2,73.4,94,29.83,4.3,Calm,Calm,-,N/A,,Partly Cloudy,0,2014-04-15 00:00:00
7:30 AM,75.2,73.4,94,29.83,4.3,Calm,Calm,-,N/A,,Partly Cloudy,0,2014-04-15 00:30:00
8:00 AM,75.2,73.4,94,29.83,5.0,Calm,Calm,-,N/A,,Partly Cloudy,0,2014-04-15 01:00:00
8:30 AM,78.8,73.4,83,29.86,5.0,WNW,5.8,-,N/A,,Partly Cloudy,300,2014-04-15 01:30:00
9:30 AM,84.2,75.2,74,29.86,5.0,NNE,6.9,-,N/A,,Partly Cloudy,20,2014-04-15 02:30:00
10:00 AM,92,72,43,29.78,6,NNW,5.8,,,,Mostly Cloudy,340,2014-04-15 03:00:00
10:00 AM,86.0,75.2,70,29.86,6.2,WNW,6.9,-,N/A,,Scattered Clouds,300,2014-04-15 03:00:00
10:30 AM,86.0,75.2,70,29.86,6.2,Calm,Calm,-,N/A,,Scattered Clouds,0,2014-04-15 03:30:00
11:00 AM,87.8,75.2,66,29.83,6.2,NNW,4.6,-,N/A,,Scattered Clouds,340,2014-04-15 04:00:00
11:30 AM,87.8,75.2,66,29.83,6.2,Calm,Calm,-,N/A,,Scattered Clouds,0,2014-04-15 04:30:00
12:30 PM,89.6,73.4,59,29.77,6.2,NNW,5.8,-,N/A,,Mostly Cloudy,340,2014-04-15 05:30:00
1:00 PM,92,72,43,29.78,6,NNW,5.8,,,,Mostly Cloudy,340,2014-04-15 06:00:00
1:00 PM,93.2,71.6,49,29.77,6.2,NNW,5.8,-,N/A,,Mostly Cloudy,340,2014-04-15 06:00:00
1:30 PM,93.2,71.6,49,29.74,6.2,ENE,5.8,-,N/A,,Mostly Cloudy,60,2014-04-15 06:30:00
2:00 PM,95.0,71.6,47,29.74,6.2,NNW,6.9,-,N/A,,Mostly Cloudy,340,2014-04-15 07:00:00
2:30 PM,95.0,71.6,47,29.71,6.2,NW,8.1,-,N/A,,Mostly Cloudy,310,2014-04-15 07:30:00
3:00 PM,95.0,71.6,47,29.71,6.2,North,5.8,-,N/A,,Scattered Clouds,10,2014-04-15 08:00:00
3:30 PM,95.0,71.6,47,29.71,6.2,WNW,8.1,-,N/A,,Scattered Clouds,290,2014-04-15 08:30:00
4:00 PM,94,70,36,29.70,6,WNW,6.9,,,,Partly Cloudy,300,2014-04-15 09:00:00
4:00 PM,95.0,69.8,44,29.68,6.2,WNW,6.9,-,N/A,,Scattered Clouds,300,2014-04-15 09:00:00
4:30 PM,95.0,69.8,44,29.68,6.2,North,6.9,-,N/A,,Scattered Clouds,350,2014-04-15 09:30:00
5:00 PM,93.2,73.4,52,29.68,6.2,Calm,Calm,-,N/A,,Partly Cloudy,0,2014-04-15 10:00:00
5:30 PM,93.2,73.4,52,29.71,6.2,Calm,Calm,-,N/A,,Partly Cloudy,0,2014-04-15 10:30:00
6:00 PM,89.6,73.4,59,29.71,6.2,Calm,Calm,-,N/A,,Scattered Clouds,0,2014-04-15 11:00:00
6:30 PM,89.6,73.4,59,29.71,6.2,NNW,5.8,-,N/A,,Partly Cloudy,340,2014-04-15 11:30:00
7:00 PM,89,75,55,29.73,5,Calm,Calm,,,,Scattered Clouds,,2014-04-15 12:00:00
7:00 PM,87.8,75.2,66,29.71,5.0,Calm,Calm,-,N/A,,Partly Cloudy,0,2014-04-15 12:00:00
7:30 PM,87.8,75.2,66,29.74,5.0,Calm,Calm,-,N/A,,Scattered Clouds,0,2014-04-15 12:30:00
8:00 PM,86.0,75.2,70,29.77,4.3,ENE,5.8,-,N/A,,Partly Cloudy,70,2014-04-15 13:00:00
8:30 PM,86.0,75.2,70,29.77,4.3,ENE,5.8,-,N/A,,Partly Cloudy,70,2014-04-15 13:30:00
9:00 PM,84.2,77.0,79,29.80,4.3,NE,11.5,-,N/A,Thunderstorm,Thunderstorm,40,2014-04-15 14:00:00
9:30 PM,84.2,75.2,74,29.80,3.1,West,5.8,-,N/A,Rain-Thunderstorm,Light Thunderstorms and Rain,270,2014-04-15 14:30:00
10:00 PM,79,74,79,29.84,3,WSW,11.5,,,Rain-Thunderstorm,Thunderstorms and Rain,250,2014-04-15 15:00:00
10:00 PM,78.8,73.4,83,29.83,3.1,WSW,11.5,-,N/A,Rain-Thunderstorm,Light Thunderstorms and Rain,250,2014-04-15 15:00:00
10:30 PM,77.0,73.4,89,29.83,3.1,WNW,5.8,-,N/A,Rain-Thunderstorm,Light Thunderstorms and Rain,290,2014-04-15 15:30:00
11:00 PM,75.2,73.4,94,29.83,3.1,West,6.9,-,N/A,Rain-Thunderstorm,Light Thunderstorms and Rain,270,2014-04-15 16:00:00